Weather History for Hoonah, AK

Change the Weather History Date:

Tuesday, January 15, 2013

  Actual Average Record
Temperature  
Mean Temperature 34 °F -  
Max Temperature 37 °F 31 °F 41 °F (2001)
Min Temperature 32 °F 26 °F 2 °F (2012)
Degree Days  
Heating Degree Days 30    
Moisture  
Dew Point 35 °F    
Average Humidity 100    
Maximum Humidity 100    
Minimum Humidity 100    
Precipitation  
Precipitation 0.00 in - - ()
Sea Level Pressure  
Sea Level Pressure 30.21 in    
Wind  
Wind Speed 0 mph (West)    
Max Wind Speed 4 mph    
Max Gust Speed -    
Visibility 2 miles    
Events Fog , Rain    
Averages and records for this station are not official NWS values.
T = Trace of Precipitation, MM = Missing Value Source: NWS Daily Summary

Daily Weather History Graph

Daily Weather History Graph

Search for Another Location

Airport:

Trip Planner

Search our weather history database for the weather conditions in past years. The results will help you decide how hot, cold, wet, or windy it might be!

Date:

Astronomy

Jan. 15, 2013 Rise Set
Actual Time 8:35 AM AKST 3:48 PM AKST
Civil Twilight 7:46 AM AKST 4:36 PM AKST
Nautical Twilight 6:56 AM AKST 5:26 PM AKST
Astronomical Twilight 6:09 AM AKST 6:14 PM AKST
Moon 9:33 AM AKST (1/15) 10:05 PM AKST (1/15)
Length of Visible Light 8h 49m
Length of Day
7h 12m
Waxing Crescent, 20% of the Moon is Illuminated
Jan 15
Waxing Crescent
Jan 18
First Quarter
Jan 26
Full
Feb 3
Last Quarter
Feb 9
New

Hourly Weather History & Observations

Time (AKST) Temp. Windchill Dew Point Humidity Pressure Visibility Wind Dir Wind Speed Gust Speed Precip Events Conditions
12:56 PM 36.0 °F - 36.0 °F 100% 30.13 in 4.0 mi Calm Calm - N/A   Overcast
1:44 PM 37.4 °F - 37.4 °F 100% 30.13 in 5.0 mi Calm Calm - 0.00 in   Overcast
1:56 PM 36.0 °F - 36.0 °F 100% 30.14 in 2.0 mi Calm Calm - 0.00 in   Overcast
2:04 PM 35.6 °F - 35.6 °F 100% 30.13 in 1.5 mi Calm Calm - N/A   Overcast
2:10 PM 35.6 °F - 35.6 °F 100% 30.13 in 2.0 mi Calm Calm - N/A   Overcast
2:22 PM 35.6 °F - 35.6 °F 100% 30.13 in 1.8 mi Calm Calm - N/A   Overcast
2:26 PM 35.6 °F - 35.6 °F 100% 30.13 in 1.0 mi Calm Calm - N/A   Overcast
2:38 PM 35.6 °F - 35.6 °F 100% 30.13 in 1.2 mi Calm Calm - N/A   Overcast
2:42 PM 35.6 °F - 35.6 °F 100% 30.14 in 1.5 mi Calm Calm - N/A   Overcast
2:56 PM 36.9 °F - 36.9 °F 100% 30.15 in 1.2 mi Calm Calm - N/A   Overcast
3:04 PM 35.6 °F - 35.6 °F 100% 30.15 in 1.0 mi Calm Calm - N/A   Overcast
3:13 PM 37.4 °F - 37.4 °F 100% 30.15 in 1.5 mi Calm Calm - N/A   Overcast
3:21 PM 35.6 °F - 35.6 °F 100% 30.15 in 1.2 mi Calm Calm - N/A   Overcast
3:24 PM 35.6 °F - 35.6 °F 100% 30.15 in 1.0 mi Calm Calm - N/A   Overcast
3:37 PM 37.4 °F 34.9 °F 37.4 °F 100% 30.16 in 1.5 mi West 3.5 mph - 0.00 in Rain Light Rain
3:44 PM 37.4 °F - 37.4 °F 100% 30.16 in 3.0 mi Calm Calm - 0.00 in   Overcast
3:56 PM 36.0 °F - 36.0 °F 100% 30.17 in 3.0 mi Calm Calm - 0.00 in   Overcast
4:01 PM 35.6 °F - 35.6 °F 100% 30.16 in 1.8 mi Calm Calm - N/A   Overcast
4:11 PM 35.6 °F - 35.6 °F 100% 30.16 in 2.0 mi Calm Calm - N/A   Overcast
4:17 PM 35.6 °F - 35.6 °F 100% 30.17 in 3.0 mi Calm Calm - N/A   Overcast
4:21 PM 35.6 °F - 35.6 °F 100% 30.17 in 2.5 mi Calm Calm - N/A   Mostly Cloudy
4:33 PM 35.6 °F - 35.6 °F 100% 30.17 in 1.8 mi Calm Calm - N/A   Mostly Cloudy
4:44 PM 35.6 °F - 35.6 °F 100% 30.18 in 2.0 mi Calm Calm - N/A   Overcast
4:56 PM 34.9 °F - 34.9 °F 100% 30.18 in 2.5 mi Calm Calm - N/A   Overcast
5:00 PM 35.6 °F - 35.6 °F 100% 30.18 in 1.2 mi Calm Calm - N/A   Overcast
5:02 PM 35.6 °F - 35.6 °F 100% 30.18 in 1.0 mi Calm Calm - N/A   Overcast
5:36 PM 35.6 °F - 35.6 °F 100% 30.20 in 1.5 mi Calm Calm - N/A   Overcast
5:56 PM 35.6 °F - 35.6 °F 100% 30.21 in 1.5 mi Calm Calm - N/A   Overcast
6:01 PM 35.6 °F - 35.6 °F 100% 30.21 in 3.0 mi Calm Calm - N/A   Overcast
6:16 PM 35.6 °F - 35.6 °F 100% 30.21 in 2.5 mi Calm Calm - N/A   Overcast
6:21 PM 33.8 °F - 33.8 °F 100% 30.21 in 1.8 mi Calm Calm - N/A   Overcast
6:26 PM 33.8 °F - 33.8 °F 100% 30.21 in 1.0 mi Calm Calm - N/A   Overcast
6:29 PM 33.8 °F - 33.8 °F 100% 30.22 in 0.8 mi Calm Calm - N/A   Overcast
6:38 PM 33.8 °F - 33.8 °F 100% 30.22 in 1.2 mi Calm Calm - N/A   Overcast
6:44 PM 33.8 °F - 33.8 °F 100% 30.22 in 0.8 mi Calm Calm - N/A   Overcast
6:56 PM 34.0 °F - 34.0 °F 100% 30.24 in 0.5 mi Calm Calm - N/A Fog Fog
7:14 PM 33.8 °F - 33.8 °F 100% 30.25 in 1.0 mi Calm Calm - N/A   Overcast
7:27 PM 33.8 °F - 33.8 °F 100% 30.25 in 0.5 mi Calm Calm - N/A Fog Fog
7:56 PM 34.0 °F - 34.0 °F 100% 30.27 in 1.2 mi Calm Calm - N/A   Overcast
8:14 PM 33.8 °F - 33.8 °F 100% 30.27 in 0.8 mi Calm Calm - N/A   Overcast
8:30 PM 33.8 °F - 33.8 °F 100% 30.27 in 1.2 mi Calm Calm - N/A   Overcast
8:38 PM 33.8 °F - 33.8 °F 100% 30.28 in 2.0 mi Calm Calm - N/A   Overcast
8:56 PM 33.8 °F - 33.8 °F 100% 30.29 in 2.5 mi Calm Calm - N/A   Overcast
9:26 PM 33.8 °F - 33.8 °F 100% 30.29 in 1.2 mi Calm Calm - N/A   Overcast
9:42 PM 33.8 °F - 33.8 °F 100% 30.30 in 1.0 mi Calm Calm - N/A   Overcast
9:56 PM 32.9 °F - 32.9 °F 100% 30.31 in 1.8 mi Calm Calm - N/A   Overcast
10:22 PM 33.8 °F - 33.8 °F 100% 30.32 in 2.0 mi Calm Calm - N/A   Overcast
10:30 PM 33.8 °F - 33.8 °F 100% 30.32 in 1.2 mi Calm Calm - N/A   Overcast
10:37 PM 33.8 °F - 33.8 °F 100% 30.32 in 0.8 mi Calm Calm - N/A   Overcast
10:56 PM 32.9 °F - 32.9 °F 100% 30.34 in 2.0 mi Calm Calm - N/A   Overcast
11:56 PM 32.9 °F - 32.9 °F 100% 30.35 in 1.0 mi Calm Calm - N/A   Overcast